Location: Katowice
(50.2611°N, 19.0242°E)
Time: 00:19:25
(UTC+02:00)

Tiros 1 - Pass Details

Date: 29 August 2019
Orbit: 630 x 664 km, 48.4° (Epoch: 22 September)

Event Time Altitude Azimuth Distance (km) Brightness Sun altitude
Exits shadow 02:48:41 16° 127° (SE) 1,677 9.2 -24.4°
Drops below altitude 10° 02:49:38 10° 123° (ESE) 2,025 9.7 -24.4°
Sets 02:52:01 0° 119° (ESE) 2,938 10.6 -24.1°
